Flag for Germany Weather past 2 weeks in Fürstenwalde/Spree, Brandenburg, Germany

Now
49 °F

Clear.


Feels Like: 49 °F
Forecast: 53 / 74 °F
Wind: 2 mph from Northwest

Location: Lindenberg

Current Time: Aug 28, 2014 at 7:13:40 AM

Latest Report: Aug 28, 2014 at 6:00 AM


Visibility: 16 mi

Pressure: 30.04 "Hg

Humidity: 91%

Dew point: 47 °F

Location of Fürstenwalde/SpreeLocation

Historic Weather in Fürstenwalde/Spree — Graph

°F

Fürstenwalde/Spree temperature yesterday

Maximum temperature yesterday: 67 °F (at 2:00 PM)
Minimum temperature yesterday: 47 °F (at 6:00 AM)
Average temperature yesterday: 57 °F

Past Weeks' High & Low Weather Summary

 TemperatureHumidityPressure
High73 °F (Aug 13, 4:00 PM)99% (Aug 27, 2:00 AM)30.04 "Hg (Aug 27, 2:00 AM)
Low45 °F (Aug 25, 7:00 AM)33% (Aug 22, 6:00 PM)29.63 "Hg (Aug 14, 12:00 AM)
Average59 °F74%29.87 "Hg
* Reported Aug 13 6:00 AM — Aug 28 6:00 AM, Fürstenwalde/Spree, Weather by CustomWeather, © 2014

Note: Actual official high and low records may vary slightly from our data, if they occured in-between our weather recording intervals... More about our weather records

Advertising

Fürstenwalde/Spree weather history for previous 24 hours

 ConditionsComfort  
Time TempWeatherWind HumidityBarometerVisibility
6:00 AM
Aug 28
49 °FClear.2 mph91%30.04 "Hg16 mi
4:00 AM50 °FClear.3 mph91%30.04 "Hg19 mi
3:00 AM51 °FPassing clouds.2 mph88%30.03 "Hg22 mi
2:00 AM52 °FPassing clouds.3 mph86%30.03 "Hg28 mi
1:00 AM53 °FPassing clouds.3 mph84%30.03 "Hg31 mi
12:00 AM54 °FClear.2 mph81%30.03 "Hg31 mi
11:00 PM
Aug 27
55 °FPassing clouds.3 mph77%30.02 "Hg34 mi
10:00 PM57 °FPassing clouds.3 mph72%30.01 "Hg34 mi
9:00 PM58 °FPassing clouds.2 mph68%30.00 "Hg37 mi
8:00 PM60 °FPassing clouds.2 mph64%29.98 "Hg31 mi
7:00 PM66 °FScattered clouds.5 mph48%29.96 "Hg28 mi
6:00 PM67 °FPartly sunny.5 mph47%29.96 "Hg28 mi
5:00 PM63 °FPartly sunny.2 mph63%29.95 "Hg31 mi
4:00 PM60 °FOvercast.2 mph73%29.95 "Hg31 mi
3:00 PM67 °FPartly sunny.2 mph50%29.93 "Hg31 mi
2:00 PM67 °FPartly sunny.3 mph49%29.93 "Hg31 mi
1:00 PM64 °FScattered clouds.2 mph55%29.93 "Hg31 mi
12:00 PM63 °FPartly sunny.3 mph60%29.92 "Hg31 mi
11:00 AM61 °FPassing clouds.3 mph76%29.92 "Hg18 mi
9:00 AM53 °FPassing clouds.2 mph94%29.90 "Hg5 mi
8:00 AM49 °FFog.1 mph99%29.88 "Hg4 mi
7:00 AM47 °FFog.2 mph99%29.85 "Hg3 mi
Weather by CustomWeather, © 2014

See weather overviewHow to use our weather pages